Year,Month,Day,Hour,Minute,Value (Times are PST for temperature in C)
2019,02,17,00,00,2.70
2019,02,17,00,01,2.70
2019,02,17,00,02,2.70
2019,02,17,00,03,2.70
2019,02,17,00,04,2.70
2019,02,17,00,05,2.80
2019,02,17,00,06,2.80
2019,02,17,00,07,2.80
2019,02,17,00,08,2.80
2019,02,17,00,09,2.80
2019,02,17,00,10,2.80
2019,02,17,00,11,2.80
2019,02,17,00,12,2.80
2019,02,17,00,13,2.80
2019,02,17,00,14,2.80
2019,02,17,00,15,2.80
2019,02,17,00,16,2.80
2019,02,17,00,17,2.80
2019,02,17,00,18,2.80
2019,02,17,00,19,2.80
2019,02,17,00,20,2.80
2019,02,17,00,21,2.80
2019,02,17,00,22,2.80
2019,02,17,00,23,2.80
2019,02,17,00,24,2.80
2019,02,17,00,25,2.80
2019,02,17,00,26,2.80
2019,02,17,00,27,2.80
2019,02,17,00,28,2.80
2019,02,17,00,29,2.80
2019,02,17,00,30,2.80
2019,02,17,00,31,2.80
2019,02,17,00,32,2.80
2019,02,17,00,33,2.80
2019,02,17,00,34,2.80
2019,02,17,00,35,2.80
2019,02,17,00,36,2.80
2019,02,17,00,37,2.80
2019,02,17,00,38,2.80
2019,02,17,00,39,2.80
2019,02,17,00,40,2.80
2019,02,17,00,41,2.80
2019,02,17,00,42,2.80
2019,02,17,00,43,2.80
2019,02,17,00,44,2.80
2019,02,17,00,45,2.80
2019,02,17,00,46,2.80
2019,02,17,00,47,2.80
2019,02,17,00,48,2.80
2019,02,17,00,49,2.80
2019,02,17,00,50,2.80
2019,02,17,00,51,2.80
2019,02,17,00,52,2.80
2019,02,17,00,53,2.80
2019,02,17,00,54,2.80
2019,02,17,00,55,2.80
2019,02,17,00,56,2.80
2019,02,17,00,57,2.80
2019,02,17,00,58,2.80
2019,02,17,00,59,2.80
2019,02,17,01,00,2.80
2019,02,17,01,01,2.80
2019,02,17,01,02,2.80
2019,02,17,01,03,2.80
2019,02,17,01,04,2.80
2019,02,17,01,05,2.80
2019,02,17,01,06,2.80
2019,02,17,01,07,2.80
2019,02,17,01,08,2.80
2019,02,17,01,09,2.80
2019,02,17,01,10,2.80
2019,02,17,01,11,2.80
2019,02,17,01,12,2.80
2019,02,17,01,13,2.80
2019,02,17,01,14,2.80
2019,02,17,01,15,2.80
2019,02,17,01,16,2.80
2019,02,17,01,17,2.90
2019,02,17,01,18,2.90
2019,02,17,01,19,2.90
2019,02,17,01,20,2.90
2019,02,17,01,21,2.90
2019,02,17,01,22,2.90
2019,02,17,01,23,2.90
2019,02,17,01,24,2.90
2019,02,17,01,25,2.90
2019,02,17,01,26,2.90
2019,02,17,01,27,2.90
2019,02,17,01,28,2.90
2019,02,17,01,29,2.90
2019,02,17,01,30,2.90
2019,02,17,01,31,2.90
2019,02,17,01,32,2.90
2019,02,17,01,33,2.90
2019,02,17,01,34,2.90
2019,02,17,01,35,2.90
2019,02,17,01,36,2.90
2019,02,17,01,37,2.90
2019,02,17,01,38,2.90
2019,02,17,01,39,2.90
2019,02,17,01,40,2.90
2019,02,17,01,41,2.90
2019,02,17,01,42,2.90
2019,02,17,01,43,2.90
2019,02,17,01,44,2.90
2019,02,17,01,45,2.90
2019,02,17,01,46,2.90
2019,02,17,01,47,2.90
2019,02,17,01,48,2.90
2019,02,17,01,49,2.90
2019,02,17,01,50,2.90
2019,02,17,01,51,2.90
2019,02,17,01,52,2.90
2019,02,17,01,53,2.90
2019,02,17,01,54,2.90
2019,02,17,01,55,2.90
2019,02,17,01,56,2.90
2019,02,17,01,57,2.90
2019,02,17,01,58,2.90
2019,02,17,01,59,2.80
2019,02,17,02,00,2.80
2019,02,17,02,01,2.80
2019,02,17,02,02,2.80
2019,02,17,02,03,2.80
2019,02,17,02,04,2.80
2019,02,17,02,05,2.80
2019,02,17,02,06,2.80
2019,02,17,02,07,2.80
2019,02,17,02,08,2.80
2019,02,17,02,09,2.80
2019,02,17,02,10,2.80
2019,02,17,02,11,2.80
2019,02,17,02,12,2.80
2019,02,17,02,13,2.80
2019,02,17,02,14,2.80
2019,02,17,02,15,2.80
2019,02,17,02,16,2.80
2019,02,17,02,17,2.80
2019,02,17,02,18,2.80
2019,02,17,02,19,2.80
2019,02,17,02,20,2.80
2019,02,17,02,21,2.80
2019,02,17,02,22,2.80
2019,02,17,02,23,2.80
2019,02,17,02,24,2.80
2019,02,17,02,25,2.80
2019,02,17,02,26,2.80
2019,02,17,02,27,2.80
2019,02,17,02,28,2.80
2019,02,17,02,29,2.80
2019,02,17,02,30,2.80
2019,02,17,02,31,2.80
2019,02,17,02,32,2.80
2019,02,17,02,33,2.80
2019,02,17,02,34,2.80
2019,02,17,02,35,2.80
2019,02,17,02,36,2.80
2019,02,17,02,37,2.80
2019,02,17,02,38,2.70
2019,02,17,02,39,2.70
2019,02,17,02,40,2.70
2019,02,17,02,41,2.70
2019,02,17,02,42,2.70
2019,02,17,02,43,2.70
2019,02,17,02,44,2.70
2019,02,17,02,45,2.70
2019,02,17,02,46,2.70
2019,02,17,02,47,2.70
2019,02,17,02,48,2.70
2019,02,17,02,49,2.70
2019,02,17,02,50,2.70
2019,02,17,02,51,2.70
2019,02,17,02,52,2.70
2019,02,17,02,53,2.70
2019,02,17,02,54,2.70
2019,02,17,02,55,2.70
2019,02,17,02,56,2.70
2019,02,17,02,57,2.70
2019,02,17,02,58,2.70
2019,02,17,02,59,2.70
2019,02,17,03,00,2.70
2019,02,17,03,01,2.60
2019,02,17,03,02,2.60
2019,02,17,03,03,2.60
2019,02,17,03,04,2.60
2019,02,17,03,05,2.60
2019,02,17,03,06,2.60
2019,02,17,03,07,2.60
2019,02,17,03,08,2.60
2019,02,17,03,09,2.60
2019,02,17,03,10,2.60
2019,02,17,03,11,2.60
2019,02,17,03,12,2.60
2019,02,17,03,13,2.60
2019,02,17,03,14,2.60
2019,02,17,03,15,2.60
2019,02,17,03,16,2.60
2019,02,17,03,17,2.60
2019,02,17,03,18,2.60
2019,02,17,03,19,2.60
2019,02,17,03,20,2.60
2019,02,17,03,21,2.60
2019,02,17,03,22,2.60
2019,02,17,03,23,2.60
2019,02,17,03,24,2.60
2019,02,17,03,25,2.50
2019,02,17,03,26,2.50
2019,02,17,03,27,2.50
2019,02,17,03,28,2.50
2019,02,17,03,29,2.50
2019,02,17,03,30,2.50
2019,02,17,03,31,2.60
2019,02,17,03,32,2.60
2019,02,17,03,33,2.60
2019,02,17,03,34,2.50
2019,02,17,03,35,2.50
2019,02,17,03,36,2.50
2019,02,17,03,37,2.50
2019,02,17,03,38,2.50
2019,02,17,03,39,2.60
2019,02,17,03,40,2.50
2019,02,17,03,41,2.50
2019,02,17,03,42,2.60
2019,02,17,03,43,2.60
2019,02,17,03,44,2.60
2019,02,17,03,45,2.60
2019,02,17,03,46,2.60
2019,02,17,03,47,2.60
2019,02,17,03,48,2.60
2019,02,17,03,49,2.60
2019,02,17,03,50,2.60
2019,02,17,03,51,2.60
2019,02,17,03,52,2.60
2019,02,17,03,53,2.60
2019,02,17,03,54,2.60
2019,02,17,03,55,2.60
2019,02,17,03,56,2.60
2019,02,17,03,57,2.60
2019,02,17,03,58,2.60
2019,02,17,03,59,2.60
2019,02,17,04,00,2.60
2019,02,17,04,01,2.60
2019,02,17,04,02,2.70
2019,02,17,04,03,2.70
2019,02,17,04,04,2.70
2019,02,17,04,05,2.60
2019,02,17,04,06,2.60
2019,02,17,04,07,2.60
2019,02,17,04,08,2.60
2019,02,17,04,09,2.60
2019,02,17,04,10,2.60
2019,02,17,04,11,2.60
2019,02,17,04,12,2.60
2019,02,17,04,13,2.60
2019,02,17,04,14,2.60
2019,02,17,04,15,2.60
2019,02,17,04,16,2.60
2019,02,17,04,17,2.60
2019,02,17,04,18,2.50
2019,02,17,04,19,2.50
2019,02,17,04,20,2.50
2019,02,17,04,21,2.60
2019,02,17,04,22,2.60
2019,02,17,04,23,2.60
2019,02,17,04,24,2.60
2019,02,17,04,25,2.60
2019,02,17,04,26,2.60
2019,02,17,04,27,2.60
2019,02,17,04,28,2.60
2019,02,17,04,29,2.60
2019,02,17,04,30,2.60
2019,02,17,04,31,2.60
2019,02,17,04,32,2.50
2019,02,17,04,33,2.50
2019,02,17,04,34,2.50
2019,02,17,04,35,2.50
2019,02,17,04,36,2.50
2019,02,17,04,37,2.50
2019,02,17,04,38,2.40
2019,02,17,04,39,2.50
2019,02,17,04,40,2.50
2019,02,17,04,41,2.50
2019,02,17,04,42,2.50
2019,02,17,04,43,2.40
2019,02,17,04,44,2.40
2019,02,17,04,45,2.40
2019,02,17,04,46,2.40
2019,02,17,04,47,2.40
2019,02,17,04,48,2.40
2019,02,17,04,49,2.40
2019,02,17,04,50,2.40
2019,02,17,04,51,2.40
2019,02,17,04,52,2.40
2019,02,17,04,53,2.40
2019,02,17,04,54,2.30
2019,02,17,04,55,2.30
2019,02,17,04,56,2.30
2019,02,17,04,57,2.30
2019,02,17,04,58,2.30
2019,02,17,04,59,2.30
2019,02,17,05,00,2.20
2019,02,17,05,01,2.20
2019,02,17,05,02,2.20
2019,02,17,05,03,2.20
2019,02,17,05,04,2.20
2019,02,17,05,05,2.20
2019,02,17,05,06,2.20
2019,02,17,05,07,2.20
2019,02,17,05,08,2.20
2019,02,17,05,09,2.20
2019,02,17,05,10,2.20
2019,02,17,05,11,2.10
2019,02,17,05,12,2.10
2019,02,17,05,13,2.10
2019,02,17,05,14,2.10
2019,02,17,05,15,2.10
2019,02,17,05,16,2.10
2019,02,17,05,17,2.10
2019,02,17,05,18,2.10
2019,02,17,05,19,2.10
2019,02,17,05,20,2.10
2019,02,17,05,21,2.10
2019,02,17,05,22,2.10
2019,02,17,05,23,2.10
2019,02,17,05,24,2.10
2019,02,17,13,04,5.90
2019,02,17,13,05,5.90
2019,02,17,13,06,5.90
2019,02,17,13,07,5.90
2019,02,17,13,08,5.90
2019,02,17,13,09,5.80
2019,02,17,13,10,5.80
2019,02,17,13,11,5.80
2019,02,17,13,12,5.80
2019,02,17,13,13,5.80
2019,02,17,13,14,5.80
2019,02,17,13,15,5.80
2019,02,17,13,16,5.80
2019,02,17,13,17,5.80
2019,02,17,13,18,5.80
2019,02,17,13,19,5.80
2019,02,17,13,20,5.80
2019,02,17,13,21,5.80
2019,02,17,13,22,5.80
2019,02,17,13,23,5.80
2019,02,17,13,24,5.80
2019,02,17,13,25,5.80
2019,02,17,13,26,5.80
2019,02,17,13,27,5.80
2019,02,17,13,28,5.80
2019,02,17,13,29,5.80
2019,02,17,13,30,5.80
2019,02,17,13,31,5.80
2019,02,17,13,32,5.80
2019,02,17,13,33,5.80
2019,02,17,13,34,5.80
2019,02,17,13,35,5.80
2019,02,17,13,36,5.80
2019,02,17,13,37,5.80
2019,02,17,13,38,5.80
2019,02,17,13,39,5.80
2019,02,17,13,40,5.70
2019,02,17,13,41,5.70
2019,02,17,13,42,5.70
2019,02,17,13,43,5.70
2019,02,17,13,44,5.60
2019,02,17,13,45,5.60
2019,02,17,13,46,5.50
2019,02,17,13,47,5.50
2019,02,17,13,48,5.50
2019,02,17,13,49,5.50
2019,02,17,13,50,5.50
2019,02,17,13,51,5.50
2019,02,17,13,52,5.50
2019,02,17,13,53,5.60
2019,02,17,13,54,5.60
2019,02,17,13,55,5.60
2019,02,17,13,56,5.60
2019,02,17,13,57,5.60
2019,02,17,13,58,5.60
2019,02,17,13,59,5.70
2019,02,17,14,00,5.70
2019,02,17,14,01,5.80
2019,02,17,14,02,5.80
2019,02,17,14,03,5.90
2019,02,17,14,04,5.90
2019,02,17,14,05,5.90
2019,02,17,14,06,6.00
2019,02,17,14,07,6.00
2019,02,17,14,08,6.00
2019,02,17,14,09,6.00
2019,02,17,14,10,6.10
2019,02,17,14,11,6.10
2019,02,17,14,12,6.10
2019,02,17,14,13,6.10
2019,02,17,14,14,6.10
2019,02,17,14,15,6.10
2019,02,17,14,16,6.00
2019,02,17,14,17,6.10
2019,02,17,14,18,6.10
2019,02,17,14,19,6.10
2019,02,17,14,20,6.10
2019,02,17,14,21,6.10
2019,02,17,14,22,6.10
2019,02,17,14,23,6.10
2019,02,17,14,24,6.10
2019,02,17,14,25,6.10
2019,02,17,14,26,6.10
2019,02,17,14,27,6.10
2019,02,17,14,28,6.10
2019,02,17,14,29,6.10
2019,02,17,14,30,6.10
2019,02,17,14,31,6.00
2019,02,17,14,32,6.00
2019,02,17,14,33,5.90
2019,02,17,14,34,5.90
2019,02,17,14,35,5.90
2019,02,17,14,36,5.80
2019,02,17,14,37,5.80
2019,02,17,14,38,5.80
2019,02,17,14,39,5.80
2019,02,17,14,40,5.80
2019,02,17,14,41,5.80
2019,02,17,14,42,5.80
2019,02,17,14,43,5.80
2019,02,17,14,44,5.80
2019,02,17,14,45,5.80
2019,02,17,14,46,5.80
2019,02,17,14,47,5.80
2019,02,17,14,48,5.90
2019,02,17,14,49,5.90
2019,02,17,14,50,5.90
2019,02,17,14,51,5.90
2019,02,17,14,52,5.90
2019,02,17,14,53,5.90
2019,02,17,14,54,5.90
2019,02,17,14,55,5.80
2019,02,17,14,56,5.90
2019,02,17,14,57,5.90
2019,02,17,14,58,5.90
2019,02,17,14,59,5.90
2019,02,17,15,00,5.90
2019,02,17,15,01,6.00
2019,02,17,15,02,6.00
2019,02,17,15,03,6.00
2019,02,17,15,04,6.00
2019,02,17,15,05,6.00
2019,02,17,15,06,6.10
2019,02,17,15,07,6.00
2019,02,17,15,08,6.00
2019,02,17,15,09,6.10
2019,02,17,15,10,6.00
2019,02,17,15,11,6.00
2019,02,17,15,12,6.00
2019,02,17,15,13,6.10
2019,02,17,15,14,6.10
2019,02,17,15,15,6.10
2019,02,17,15,16,6.10
2019,02,17,15,17,6.10
2019,02,17,15,18,6.10
2019,02,17,15,19,6.10
2019,02,17,15,20,6.10
2019,02,17,15,21,6.10
2019,02,17,15,22,6.20
2019,02,17,15,23,6.20
2019,02,17,15,24,6.20
2019,02,17,15,25,6.20
2019,02,17,15,26,6.20
2019,02,17,15,27,6.20
2019,02,17,15,28,6.20
2019,02,17,15,29,6.20
2019,02,17,15,30,6.20
2019,02,17,15,31,6.20
2019,02,17,15,32,6.20
2019,02,17,15,33,6.20
2019,02,17,15,34,6.20
2019,02,17,15,35,6.20
2019,02,17,15,36,6.20
2019,02,17,15,37,6.10
2019,02,17,15,38,6.10
2019,02,17,15,39,6.10
2019,02,17,15,40,6.10
2019,02,17,15,41,6.10
2019,02,17,15,42,6.10
2019,02,17,15,43,6.10
2019,02,17,15,44,6.10
2019,02,17,15,45,6.10
2019,02,17,15,46,6.10
2019,02,17,15,47,6.10
2019,02,17,15,48,6.10
2019,02,17,15,49,6.10
2019,02,17,15,50,6.10
2019,02,17,15,51,6.10
2019,02,17,15,52,6.10
2019,02,17,15,53,6.20
2019,02,17,15,54,6.20
2019,02,17,15,55,6.20
2019,02,17,15,56,6.20
2019,02,17,15,57,6.20
2019,02,17,15,58,6.20
2019,02,17,15,59,6.20
2019,02,17,16,00,6.20
2019,02,17,16,01,6.20
2019,02,17,16,02,6.20
2019,02,17,16,03,6.20
2019,02,17,16,04,6.20
2019,02,17,16,05,6.20
2019,02,17,16,06,6.20
2019,02,17,16,07,6.20
2019,02,17,16,08,6.20
2019,02,17,16,09,6.20
2019,02,17,16,10,6.20
2019,02,17,16,11,6.20
2019,02,17,16,12,6.20
2019,02,17,16,13,6.20
2019,02,17,16,14,6.20
2019,02,17,16,15,6.20
2019,02,17,16,16,6.20
2019,02,17,16,17,6.20
2019,02,17,16,18,6.20
2019,02,17,16,19,6.20
2019,02,17,16,20,6.10
2019,02,17,16,21,6.10
2019,02,17,16,22,6.10
2019,02,17,16,23,6.10
2019,02,17,16,24,6.10
2019,02,17,16,25,6.10
2019,02,17,16,26,6.10
2019,02,17,16,27,6.00
2019,02,17,16,28,6.00
2019,02,17,16,29,6.00
2019,02,17,16,30,5.90
2019,02,17,16,31,5.90
2019,02,17,16,32,5.90
2019,02,17,16,33,5.80
2019,02,17,16,34,5.80
2019,02,17,16,35,5.80
2019,02,17,16,36,5.70
2019,02,17,16,37,5.70
2019,02,17,16,38,5.70
2019,02,17,16,39,5.70
2019,02,17,16,40,5.70
2019,02,17,16,41,5.70
2019,02,17,16,42,5.60
2019,02,17,16,43,5.60
2019,02,17,16,44,5.60
2019,02,17,16,45,5.60
2019,02,17,16,46,5.60
2019,02,17,16,47,5.60
2019,02,17,16,48,5.60
2019,02,17,16,49,5.60
2019,02,17,16,50,5.60
2019,02,17,16,51,5.60
2019,02,17,16,52,5.60
2019,02,17,16,53,5.60
2019,02,17,16,54,5.60
2019,02,17,16,55,5.50
2019,02,17,16,56,5.50
2019,02,17,16,57,5.50
2019,02,17,16,58,5.40
2019,02,17,16,59,5.40
2019,02,17,17,00,5.40
2019,02,17,17,01,5.30
2019,02,17,17,02,5.30
2019,02,17,17,03,5.30
2019,02,17,17,04,5.20
2019,02,17,17,05,5.20
2019,02,17,17,06,5.20
2019,02,17,17,07,5.20
2019,02,17,17,08,5.20
2019,02,17,17,09,5.10
2019,02,17,17,10,5.10
2019,02,17,17,11,5.10
2019,02,17,17,12,5.10
2019,02,17,17,13,5.00
2019,02,17,17,14,5.00
2019,02,17,17,15,5.00
2019,02,17,17,16,4.90
2019,02,17,17,17,4.90
2019,02,17,17,18,4.90
2019,02,17,17,19,4.90
2019,02,17,17,20,4.80
2019,02,17,17,21,4.80
2019,02,17,17,22,4.80
2019,02,17,17,23,4.80
2019,02,17,17,24,4.70
2019,02,17,17,25,4.70
2019,02,17,17,26,4.70
2019,02,17,17,27,4.70
2019,02,17,17,28,4.60
2019,02,17,17,29,4.60
2019,02,17,17,30,4.60
2019,02,17,17,31,4.50
2019,02,17,17,32,4.50
2019,02,17,17,33,4.40
2019,02,17,17,34,4.40
2019,02,17,17,35,4.40
2019,02,17,17,36,4.30
2019,02,17,17,37,4.30
2019,02,17,17,38,4.30
2019,02,17,17,39,4.30
2019,02,17,17,40,4.20
2019,02,17,17,41,4.20
2019,02,17,17,42,4.20
2019,02,17,17,43,4.10
2019,02,17,17,44,4.10
2019,02,17,17,45,4.00
2019,02,17,17,46,4.00
2019,02,17,17,47,3.90
2019,02,17,17,48,3.90
2019,02,17,17,49,3.90
2019,02,17,17,50,3.80
2019,02,17,17,51,3.80
2019,02,17,17,52,3.80
2019,02,17,17,53,3.80
2019,02,17,17,54,3.70
2019,02,17,17,55,3.70
2019,02,17,17,56,3.70
2019,02,17,17,57,3.60
2019,02,17,17,58,3.60
2019,02,17,17,59,3.60
2019,02,17,18,00,3.50
2019,02,17,18,01,3.50
2019,02,17,18,02,3.50
2019,02,17,18,03,3.40
2019,02,17,18,04,3.30
2019,02,17,18,05,3.30
2019,02,17,18,06,3.20
2019,02,17,18,07,3.20
2019,02,17,18,08,3.20
2019,02,17,18,09,3.10
2019,02,17,18,10,3.10
2019,02,17,18,11,3.10
2019,02,17,18,12,3.00
2019,02,17,18,13,3.00
2019,02,17,18,14,3.00
2019,02,17,18,15,2.90
2019,02,17,18,16,2.90
2019,02,17,18,17,2.80
2019,02,17,18,18,2.80
2019,02,17,18,19,2.80
2019,02,17,18,20,2.70
2019,02,17,18,21,2.70
2019,02,17,18,22,2.60
2019,02,17,18,23,2.60
2019,02,17,18,24,2.50
2019,02,17,18,25,2.50
2019,02,17,18,26,2.40
2019,02,17,18,27,2.40
2019,02,17,18,28,2.40
2019,02,17,18,29,2.30
2019,02,17,18,30,2.30
2019,02,17,18,31,2.30
2019,02,17,18,32,2.30
2019,02,17,18,33,2.30
2019,02,17,18,34,2.20
2019,02,17,18,35,2.20
2019,02,17,18,36,2.20
2019,02,17,18,37,2.20
2019,02,17,18,38,2.20
2019,02,17,18,39,2.10
2019,02,17,18,40,2.10
2019,02,17,18,41,2.10
2019,02,17,18,42,2.00
2019,02,17,18,43,2.00
2019,02,17,18,44,1.90
2019,02,17,18,45,1.90
2019,02,17,18,46,1.90
2019,02,17,18,47,1.80
2019,02,17,18,48,1.80
2019,02,17,18,49,1.80
2019,02,17,18,50,1.80
2019,02,17,18,51,1.70
2019,02,17,18,52,1.70
2019,02,17,18,53,1.70
2019,02,17,18,54,1.60
2019,02,17,18,55,1.60
2019,02,17,18,56,1.60
2019,02,17,18,57,1.50
2019,02,17,18,58,1.50
2019,02,17,18,59,1.40
2019,02,17,19,00,1.40
2019,02,17,19,01,1.30
2019,02,17,19,02,1.30
2019,02,17,19,03,1.20
2019,02,17,19,04,1.20
2019,02,17,19,05,1.10
2019,02,17,19,06,1.10
2019,02,17,19,07,1.10
2019,02,17,19,08,1.00
2019,02,17,19,09,1.00
2019,02,17,19,10,1.00
2019,02,17,19,11,1.00
2019,02,17,19,12,1.00
2019,02,17,19,13,1.00
2019,02,17,19,14,1.00
2019,02,17,19,15,1.00
2019,02,17,19,16,1.00
2019,02,17,19,17,1.00
2019,02,17,19,18,1.00
2019,02,17,19,19,1.00
2019,02,17,19,20,1.00
2019,02,17,19,21,1.00
2019,02,17,19,22,0.90
2019,02,17,19,23,0.90
2019,02,17,19,24,0.90
2019,02,17,19,25,0.90
2019,02,17,19,26,0.80
2019,02,17,19,27,0.80
2019,02,17,19,28,0.80
2019,02,17,19,29,0.80
2019,02,17,19,30,0.80
2019,02,17,19,31,0.80
2019,02,17,19,32,0.70
2019,02,17,19,33,0.70
2019,02,17,19,34,0.70
2019,02,17,19,35,0.70
2019,02,17,19,36,0.70
2019,02,17,19,37,0.60
2019,02,17,19,38,0.60
2019,02,17,19,39,0.60
2019,02,17,19,40,0.60
2019,02,17,19,41,0.50
2019,02,17,19,42,0.50
2019,02,17,19,43,0.50
2019,02,17,19,44,0.40
2019,02,17,19,45,0.40
2019,02,17,19,46,0.40
2019,02,17,19,47,0.40
2019,02,17,19,48,0.40
2019,02,17,19,49,0.40
2019,02,17,19,50,0.40
2019,02,17,19,51,0.40
2019,02,17,19,52,0.40
2019,02,17,19,53,0.40
2019,02,17,19,54,0.40
2019,02,17,19,55,0.40
2019,02,17,19,56,0.40
2019,02,17,19,57,0.40
2019,02,17,19,58,0.40
2019,02,17,19,59,0.40
2019,02,17,20,00,0.40
2019,02,17,20,01,0.40
2019,02,17,20,02,0.40
2019,02,17,20,03,0.40
2019,02,17,20,04,0.30
2019,02,17,20,05,0.30
2019,02,17,20,06,0.30
2019,02,17,20,07,0.30
2019,02,17,20,08,0.30
2019,02,17,20,09,0.30
2019,02,17,20,10,0.30
2019,02,17,20,11,0.30
2019,02,17,20,12,0.30
2019,02,17,20,13,0.30
2019,02,17,20,14,0.30
2019,02,17,20,15,0.30
2019,02,17,20,16,0.30
2019,02,17,20,17,0.30
2019,02,17,20,18,0.30
2019,02,17,20,19,0.30
2019,02,17,20,20,0.20
2019,02,17,20,21,0.20
2019,02,17,20,22,0.20
2019,02,17,20,23,0.10
2019,02,17,20,24,0.10
2019,02,17,20,25,0.10
2019,02,17,20,26,0.00
2019,02,17,20,27,0.00
2019,02,17,20,28,0.00
2019,02,17,20,29,-0.10
2019,02,17,20,30,-0.10
2019,02,17,20,31,-0.10
2019,02,17,20,32,-0.20
2019,02,17,20,33,-0.20
2019,02,17,20,34,-0.20
2019,02,17,20,35,-0.20
2019,02,17,20,36,-0.20
2019,02,17,20,37,-0.20
2019,02,17,20,38,-0.20
2019,02,17,20,39,-0.30
2019,02,17,20,40,-0.30
2019,02,17,20,41,-0.30
2019,02,17,20,42,-0.30
2019,02,17,20,43,-0.30
2019,02,17,20,44,-0.30
2019,02,17,20,45,-0.20
2019,02,17,20,46,-0.20
2019,02,17,20,47,-0.20
2019,02,17,20,48,-0.20
2019,02,17,20,49,-0.20
2019,02,17,20,50,-0.20
2019,02,17,20,51,-0.20
2019,02,17,20,52,-0.20
2019,02,17,20,53,-0.20
2019,02,17,20,54,-0.20
2019,02,17,20,55,-0.20
2019,02,17,20,56,-0.20
2019,02,17,20,57,-0.30
2019,02,17,20,58,-0.30
2019,02,17,20,59,-0.30
2019,02,17,21,00,-0.30
2019,02,17,21,01,-0.30
2019,02,17,21,02,-0.40
2019,02,17,21,03,-0.40
2019,02,17,21,04,-0.40
2019,02,17,21,05,-0.40
2019,02,17,21,06,-0.40
2019,02,17,21,07,-0.40
2019,02,17,21,08,-0.50
2019,02,17,21,09,-0.50
2019,02,17,21,10,-0.50
2019,02,17,21,11,-0.50
2019,02,17,21,12,-0.60
2019,02,17,21,13,-0.60
2019,02,17,21,14,-0.60
2019,02,17,21,15,-0.60
2019,02,17,21,16,-0.60
2019,02,17,21,17,-0.60
2019,02,17,21,18,-0.60
2019,02,17,21,19,-0.60
2019,02,17,21,20,-0.60
2019,02,17,21,21,-0.60
2019,02,17,21,22,-0.70
2019,02,17,21,23,-0.70
2019,02,17,21,24,-0.70
2019,02,17,21,25,-0.70
2019,02,17,21,26,-0.70
2019,02,17,21,27,-0.70
2019,02,17,21,28,-0.70
2019,02,17,21,29,-0.70
2019,02,17,21,30,-0.70
2019,02,17,21,31,-0.70
2019,02,17,21,32,-0.70
2019,02,17,21,33,-0.70
2019,02,17,21,34,-0.70
2019,02,17,21,35,-0.70
2019,02,17,21,36,-0.70
2019,02,17,21,37,-0.70
2019,02,17,21,38,-0.70
2019,02,17,21,39,-0.70
2019,02,17,21,40,-0.70
2019,02,17,21,41,-0.70
2019,02,17,21,42,-0.70
2019,02,17,21,43,-0.70
2019,02,17,21,44,-0.70
2019,02,17,21,45,-0.70
2019,02,17,21,46,-0.70
2019,02,17,21,47,-0.70
2019,02,17,21,48,-0.70
2019,02,17,21,49,-0.70
2019,02,17,21,50,-0.70
2019,02,17,21,51,-0.80
2019,02,17,21,52,-0.80
2019,02,17,21,53,-0.80
2019,02,17,21,54,-0.80
2019,02,17,21,55,-0.80
2019,02,17,21,56,-0.80
2019,02,17,21,57,-0.80
2019,02,17,21,58,-0.80
2019,02,17,21,59,-0.70
2019,02,17,22,00,-0.70
2019,02,17,22,01,-0.70
2019,02,17,22,02,-0.70
2019,02,17,22,03,-0.70
2019,02,17,22,04,-0.70
2019,02,17,22,05,-0.60
2019,02,17,22,06,-0.60
2019,02,17,22,07,-0.60
2019,02,17,22,08,-0.60
2019,02,17,22,09,-0.60
2019,02,17,22,10,-0.60
2019,02,17,22,11,-0.60
2019,02,17,22,12,-0.60
2019,02,17,22,13,-0.60
2019,02,17,22,14,-0.60
2019,02,17,22,15,-0.60
2019,02,17,22,16,-0.70
2019,02,17,22,17,-0.70
2019,02,17,22,18,-0.70
2019,02,17,22,19,-0.70
2019,02,17,22,20,-0.70
2019,02,17,22,21,-0.70
2019,02,17,22,22,-0.70
2019,02,17,22,23,-0.70
2019,02,17,22,24,-0.70
2019,02,17,22,25,-0.70
2019,02,17,22,26,-0.70
2019,02,17,22,27,-0.60
2019,02,17,22,28,-0.60
2019,02,17,22,29,-0.60
2019,02,17,22,30,-0.60
2019,02,17,22,31,-0.60
2019,02,17,22,32,-0.60
2019,02,17,22,33,-0.60
2019,02,17,22,34,-0.60
2019,02,17,22,35,-0.50
2019,02,17,22,36,-0.50
2019,02,17,22,37,-0.50
2019,02,17,22,38,-0.40
2019,02,17,22,39,-0.40
2019,02,17,22,40,-0.40
2019,02,17,22,41,-0.40
2019,02,17,22,42,-0.40
2019,02,17,22,43,-0.40
2019,02,17,22,44,-0.40
2019,02,17,22,45,-0.40
2019,02,17,22,46,-0.40
2019,02,17,22,47,-0.40
2019,02,17,22,48,-0.50
2019,02,17,22,49,-0.50
2019,02,17,22,50,-0.50
2019,02,17,22,51,-0.50
2019,02,17,22,52,-0.50
2019,02,17,22,53,-0.50
2019,02,17,22,54,-0.50
2019,02,17,22,55,-0.50
2019,02,17,22,56,-0.50
2019,02,17,22,57,-0.50
2019,02,17,22,58,-0.50
2019,02,17,22,59,-0.50
2019,02,17,23,00,-0.50
2019,02,17,23,01,-0.50
2019,02,17,23,02,-0.50
2019,02,17,23,03,-0.60
2019,02,17,23,04,-0.60
2019,02,17,23,05,-0.60
2019,02,17,23,06,-0.60
2019,02,17,23,07,-0.60
2019,02,17,23,08,-0.60
2019,02,17,23,09,-0.60
2019,02,17,23,10,-0.60
2019,02,17,23,11,-0.60
2019,02,17,23,12,-0.50
2019,02,17,23,13,-0.40
2019,02,17,23,14,-0.40
2019,02,17,23,15,-0.40
2019,02,17,23,16,-0.40
2019,02,17,23,17,-0.40
2019,02,17,23,18,-0.40
2019,02,17,23,19,-0.40
2019,02,17,23,20,-0.40
2019,02,17,23,21,-0.40
2019,02,17,23,22,-0.40
2019,02,17,23,23,-0.50
2019,02,17,23,24,-0.50
2019,02,17,23,25,-0.50
2019,02,17,23,26,-0.50
2019,02,17,23,27,-0.50
2019,02,17,23,28,-0.60
2019,02,17,23,29,-0.60
2019,02,17,23,30,-0.60
2019,02,17,23,31,-0.60
2019,02,17,23,32,-0.70
2019,02,17,23,33,-0.70
2019,02,17,23,34,-0.70
2019,02,17,23,35,-0.70
2019,02,17,23,36,-0.80
2019,02,17,23,37,-0.80
2019,02,17,23,38,-0.80
2019,02,17,23,39,-0.80
2019,02,17,23,40,-0.80
2019,02,17,23,41,-0.70
2019,02,17,23,42,-0.70
2019,02,17,23,43,-0.70
2019,02,17,23,44,-0.70
2019,02,17,23,45,-0.70
2019,02,17,23,46,-0.70
2019,02,17,23,47,-0.70
2019,02,17,23,48,-0.60
2019,02,17,23,49,-0.60
2019,02,17,23,50,-0.60
2019,02,17,23,51,-0.60
2019,02,17,23,52,-0.60
2019,02,17,23,53,-0.60
2019,02,17,23,54,-0.60
2019,02,17,23,55,-0.60
2019,02,17,23,56,-0.60
2019,02,17,23,57,-0.60
2019,02,17,23,58,-0.60
2019,02,17,23,59,-0.60
